Location: Boiro
(42.6475°N, 8.8834°W)
Time: 23:04:51
(UTC+01:00)

A-11 Canister half - Pass Details

Date: 09 December 2021
Orbit: 1516 x 1684 km, 47.2° (Epoch: 18 January)

Event Time Altitude Azimuth Distance (km) Brightness Sun altitude
Rises 04:15:14 0° 170° (S) 4,679 - -50.2°
Exits shadow 04:19:15 - 152° (SSE) 3,926 11.2 -49.4°
Reaches altitude 10° 04:20:45 10° 144° (SE) 3,733 11.1 -49.2°
Maximum altitude 04:24:17 13° 121° (ESE) 3,550 11.2 -48.6°
Drops below altitude 10° 04:27:52 10° 99° (E) 3,788 11.5 -47.9°
Sets 04:33:30 0° 73° (ENE) 4,820 12.3 -46.9°
